Погода в Физули

Азербайджан     39°36′00″N   47°08′40″E
темп.,
°C
ветер,
м/с
пор.,
м/с
влажн.,
%
обл.,
%
осадки,
мм/ч
давл.,
гПа
погр.,
м
23 апреля, пт
пт2301:00+16ссв0175100 0.0 101516
04:00+13с61189100 0.0 1017376
07:00+13с610848 0.0 1020525
10:00+17ссв455847 0.0 1020809
13:00+22с444984 0.0 10191556
16:00+23с554025 0.0 10191790
19:00+19всв46651 0.0 1020180
22:00+14ссз34830 0.0 102287
24 апреля, сб
сб2401:00+12ссз57810 0.0 1023215
04:00+11ссз59772 0.0 1022251
07:00+12ссз247378 0.0 1022209
10:00+16ссв44565 0.0 1021769
13:00+20ссв554814 0.0 10181121
16:00+22св444562 0.0 10151274
19:00+20св2256100 0.0 101621
22:00+17зсз1163100 0.0 101811
25 апреля, вс
вс2501:00+15зюз226927 0.0 101812
04:00+13ссв01790 0.0 101911
07:00+14с11780 0.0 101945
10:00+19св32590 0.0 1019648
13:00+23св43480 0.0 10171222
16:00+24св54455 0.0 10141403
19:00+19всв56602 0.0 1015275
22:00+14с22755 0.0 101518
26 апреля, пн
пн2601:00+14з11770 0.0 101411
04:00+13с22800 0.0 101324
07:00+14с12774 0.0 101371
10:00+20св22531 0.0 1012562
13:00+25св43415 0.0 1009873
16:00+27всв333772 0.0 1006924
19:00+23всв225037 0.0 100618
22:00+20юз335697 0.0 100630
27 апреля, вт
вт2701:00+20зюз225410 0.0 100520
04:00+16с6137199 0.0 1009520
07:00+14сз1185100 0.0 1012117
10:00+19с3462100 0.0 1012754
13:00+21ссв775189 0.3 10111139
16:00+17в7865100 0.9 1012730
19:00+15ссв5675100 0.3 1014548
22:00+12ссз5885100 0.6 1016384